• In Uzbekistan
  • List of Countries
  • For 7 days
  • Water Temperature
  • Satellite Maps
  • Weather Map
  • Weather Widgets
  • user-avatar
    Login

    Hourly Weather Kozani

    Today, 22 August, Tuesday

    Time Temperature Precipitation Wind Pressure Humidity
    00:00 +17°C° 0 mm 2 mps 703 mmHg 68%
    01:00 +17°C° 0 mm 3 mps 703 mmHg 70%
    02:00 +16°C° 0 mm 2 mps 703 mmHg 71%
    03:00 +16°C° 0 mm 2 mps 703 mmHg 71%
    04:00 +15°C° 0 mm 2 mps 703 mmHg 72%
    05:00 +16°C° 0 mm 2 mps 703 mmHg 67%
    06:00 +17°C° 0 mm 3 mps 703 mmHg 62%
    07:00 +18°C° 0 mm 3 mps 704 mmHg 57%
    08:00 +20°C° 0 mm 3 mps 704 mmHg 50%
    09:00 +21°C° 0 mm 3 mps 704 mmHg 44%
    10:00 +24°C° 0 mm 3 mps 704 mmHg 37%
    11:00 +25°C° 0 mm 2 mps 704 mmHg 35%
    12:00 +26°C° 0 mm 2 mps 704 mmHg 33%
    13:00 +27°C° 0 mm 2 mps 704 mmHg 31%
    14:00 +27°C° 0 mm 2 mps 704 mmHg 31%
    15:00 +27°C° 0 mm 2 mps 704 mmHg 30%
    16:00 +27°C° 0 mm 2 mps 704 mmHg 29%
    17:00 +25°C° 0 mm 2 mps 704 mmHg 32%
    18:00 +23°C° 0 mm 2 mps 704 mmHg 35%
    19:00 +21°C° 0 mm 1 mps 704 mmHg 38%
    20:00 +20°C° 0 mm 1 mps 704 mmHg 39%
    21:00 +19°C° 0 mm 1 mps 704 mmHg 41%
    22:00 +18°C° 0 mm 1 mps 704 mmHg 42%
    23:00 +18°C° 0 mm 1 mps 704 mmHg 43%

    Tomorrow, 23 August, Wednesday

    Time Temperature Precipitation Wind Pressure Humidity
    00:00 +16°C° 0 mm 1 mps 704 mmHg 44%
    01:00 +16°C° 0 mm 1 mps 704 mmHg 46%
    02:00 +15°C° 0 mm 1 mps 704 mmHg 47%
    03:00 +15°C° 0 mm 1 mps 704 mmHg 48%
    04:00 +14°C° 0 mm 1 mps 704 mmHg 49%
    05:00 +16°C° 0 mm 1 mps 705 mmHg 46%
    06:00 +19°C° 0 mm 1 mps 705 mmHg 43%
    07:00 +20°C° 0 mm 1 mps 706 mmHg 40%
    08:00 +22°C° 0 mm 1 mps 706 mmHg 37%
    09:00 +24°C° 0 mm 1 mps 706 mmHg 34%
    10:00 +26°C° 0 mm 1 mps 707 mmHg 31%
    11:00 +27°C° 0 mm 1 mps 707 mmHg 30%
    12:00 +28°C° 0 mm 1 mps 706 mmHg 28%
    13:00 +29°C° 0 mm 1 mps 706 mmHg 27%
    14:00 +29°C° 0 mm 1 mps 706 mmHg 27%
    15:00 +29°C° 0 mm 1 mps 706 mmHg 27%
    16:00 +29°C° 0 mm 1 mps 706 mmHg 27%
    17:00 +26°C° 0 mm 1 mps 706 mmHg 31%
    18:00 +24°C° 0 mm 1 mps 706 mmHg 35%
    19:00 +22°C° 0 mm 1 mps 706 mmHg 39%
    20:00 +22°C° 0 mm 1 mps 706 mmHg 41%
    21:00 +21°C° 0 mm 1 mps 706 mmHg 42%
    22:00 +20°C° 0 mm 1 mps 706 mmHg 44%
    23:00 +19°C° 0 mm 1 mps 706 mmHg 44%

    Day after tomorrow, 24 August, Thursday

    Time Temperature Precipitation Wind Pressure Humidity
    00:00 +19°C° 0 mm 1 mps 706 mmHg 44%
    01:00 +18°C° 0 mm 1 mps 706 mmHg 45%
    02:00 +18°C° 0 mm 1 mps 706 mmHg 44%
    03:00 +18°C° 0 mm 1 mps 706 mmHg 44%
    04:00 +16°C° 0 mm 1 mps 706 mmHg 44%
    05:00 +19°C° 0 mm 1 mps 706 mmHg 42%
    06:00 +20°C° 0 mm 1 mps 707 mmHg 39%
    07:00 +22°C° 0 mm 1 mps 707 mmHg 36%
    08:00 +24°C° 0 mm 1 mps 708 mmHg 33%
    09:00 +26°C° 0 mm 1 mps 708 mmHg 29%
    10:00 +28°C° 0 mm 1 mps 708 mmHg 26%
    11:00 +29°C° 0 mm 1 mps 708 mmHg 25%
    12:00 +30°C° 0 mm 1 mps 708 mmHg 24%
    13:00 +30°C° 0 mm 1 mps 708 mmHg 23%
    14:00 +30°C° 0 mm 1 mps 708 mmHg 23%
    15:00 +30°C° 0 mm 2 mps 707 mmHg 23%
    16:00 +30°C° 0 mm 2 mps 707 mmHg 23%
    17:00 +28°C° 0 mm 2 mps 707 mmHg 27%
    18:00 +25°C° 0 mm 1 mps 707 mmHg 32%
    19:00 +23°C° 0 mm 1 mps 707 mmHg 36%
    20:00 +22°C° 0 mm 1 mps 707 mmHg 37%
    21:00 +21°C° 0 mm 1 mps 707 mmHg 38%
    22:00 +21°C° 0 mm 1 mps 708 mmHg 39%
    23:00 +20°C° 0 mm 1 mps 708 mmHg 40%

    25 August, Friday

    Time Temperature Precipitation Wind Pressure Humidity
    00:00 +20°C° 0 mm 1 mps 707 mmHg 40%
    01:00 +19°C° 0 mm 1 mps 707 mmHg 41%
    02:00 +19°C° 0 mm 1 mps 707 mmHg 41%
    03:00 +18°C° 0 mm 1 mps 707 mmHg 42%
    04:00 +18°C° 0 mm 1 mps 707 mmHg 43%
    05:00 +19°C° 0 mm 1 mps 708 mmHg 40%
    06:00 +21°C° 0 mm 1 mps 708 mmHg 38%
    07:00 +23°C° 0 mm 1 mps 709 mmHg 35%
    08:00 +24°C° 0 mm 1 mps 709 mmHg 32%
    09:00 +26°C° 0 mm 1 mps 709 mmHg 29%
    10:00 +28°C° 0 mm 2 mps 709 mmHg 27%
    11:00 +29°C° 0 mm 2 mps 709 mmHg 25%
    12:00 +30°C° 0 mm 2 mps 709 mmHg 24%
    13:00 +30°C° 0 mm 2 mps 708 mmHg 23%
    14:00 +30°C° 0 mm 2 mps 708 mmHg 23%
    15:00 +30°C° 0 mm 2 mps 708 mmHg 24%
    16:00 +30°C° 0 mm 2 mps 708 mmHg 25%
    17:00 +27°C° 0 mm 2 mps 707 mmHg 30%
    18:00 +25°C° 0 mm 2 mps 707 mmHg 35%
    19:00 +22°C° 0 mm 1 mps 707 mmHg 40%
    20:00 +21°C° 0 mm 1 mps 707 mmHg 42%
    21:00 +21°C° 0 mm 1 mps 707 mmHg 44%
    22:00 +20°C° 0 mm 1 mps 707 mmHg 46%
    23:00 +19°C° 0 mm 1 mps 707 mmHg 47%

    26 August, Saturday

    Time Temperature Precipitation Wind Pressure Humidity
    00:00 +19°C° 0 mm 1 mps 707 mmHg 48%
    01:00 +19°C° 0 mm 1 mps 707 mmHg 49%
    02:00 +18°C° 0 mm 1 mps 707 mmHg 50%
    03:00 +18°C° 0 mm 1 mps 707 mmHg 51%
    04:00 +18°C° 0 mm 1 mps 706 mmHg 52%
    05:00 +17°C° 0 mm 0 mps 707 mmHg 48%
    06:00 +19°C° 0 mm 0 mps 707 mmHg 44%
    07:00 +21°C° 0 mm 0 mps 707 mmHg 40%
    08:00 +25°C° 0 mm 1 mps 708 mmHg 36%
    09:00 +26°C° 0 mm 1 mps 708 mmHg 32%
    10:00 +28°C° 0 mm 1 mps 708 mmHg 28%
    11:00 +29°C° 0 mm 2 mps 708 mmHg 26%
    12:00 +30°C° 0 mm 2 mps 707 mmHg 25%
    13:00 +31°C° 0 mm 2 mps 707 mmHg 23%
    14:00 +31°C° 0 mm 2 mps 707 mmHg 24%
    15:00 +31°C° 0 mm 2 mps 707 mmHg 24%
    16:00 +31°C° 0 mm 2 mps 706 mmHg 24%
    17:00 +28°C° 0 mm 2 mps 706 mmHg 29%
    18:00 +26°C° 0 mm 2 mps 706 mmHg 34%
    19:00 +23°C° 0 mm 1 mps 706 mmHg 39%
    20:00 +22°C° 0 mm 1 mps 706 mmHg 41%
    21:00 +21°C° 0 mm 1 mps 706 mmHg 42%
    22:00 +21°C° 0 mm 1 mps 706 mmHg 44%
    23:00 +20°C° 0 mm 1 mps 706 mmHg 45%

    27 August, Sunday

    Time Temperature Precipitation Wind Pressure Humidity
    00:00 +20°C° 0 mm 1 mps 706 mmHg 46%
    01:00 +20°C° 0 mm 1 mps 705 mmHg 46%
    02:00 +19°C° 0 mm 1 mps 705 mmHg 47%
    03:00 +19°C° 0 mm 1 mps 705 mmHg 48%
    04:00 +19°C° 0 mm 1 mps 705 mmHg 48%
    05:00 +20°C° 0 mm 1 mps 705 mmHg 45%
    06:00 +20°C° 0 mm 0 mps 706 mmHg 42%
    07:00 +22°C° 0 mm 0 mps 706 mmHg 38%
    08:00 +26°C° 0 mm 1 mps 706 mmHg 34%
    09:00 +28°C° 0 mm 1 mps 706 mmHg 30%
    10:00 +30°C° 0 mm 1 mps 706 mmHg 26%
    11:00 +31°C° 0 mm 1 mps 706 mmHg 24%
    12:00 +32°C° 0 mm 2 mps 706 mmHg 23%
    13:00 +34°C° 0 mm 2 mps 705 mmHg 21%
    14:00 +32°C° 0 mm 2 mps 705 mmHg 21%
    15:00 +32°C° 0 mm 2 mps 705 mmHg 22%
    16:00 +32°C° 0 mm 2 mps 705 mmHg 22%
    17:00 +29°C° 0 mm 2 mps 704 mmHg 26%
    18:00 +27°C° 0 mm 2 mps 704 mmHg 30%
    19:00 +24°C° 0 mm 2 mps 704 mmHg 34%
    20:00 +23°C° 0 mm 1 mps 704 mmHg 36%
    21:00 +22°C° 0 mm 1 mps 704 mmHg 37%
    22:00 +22°C° 0 mm 1 mps 704 mmHg 38%
    23:00 +21°C° 0 mm 1 mps 704 mmHg 38%
    Show more